• In Belarus
  • List of Countries
  • For 7 days
  • Water Temperature
  • Satellite Maps
  • Weather Map
  • Weather Widgets
  • user-avatar
    Login

    Hourly Weather Asfi

    Today, 26 May, Saturday

    Time Temperature Precipitation Wind Pressure Humidity
    00:00 +30°C° 0 mm 7 mps 740 mmHg 24%
    01:00 +29°C° 0 mm 7 mps 740 mmHg 28%
    02:00 +28°C° 0 mm 7 mps 740 mmHg 28%
    03:00 +28°C° 0 mm 7 mps 740 mmHg 28%
    04:00 +27°C° 0 mm 6 mps 740 mmHg 28%
    05:00 +27°C° 0 mm 7 mps 740 mmHg 28%
    06:00 +28°C° 0 mm 7 mps 740 mmHg 27%
    07:00 +28°C° 0 mm 7 mps 741 mmHg 26%
    08:00 +30°C° 0 mm 7 mps 741 mmHg 23%
    09:00 +32°C° 0 mm 7 mps 741 mmHg 20%
    10:00 +34°C° 0 mm 7 mps 741 mmHg 18%
    11:00 +35°C° 0 mm 7 mps 741 mmHg 16%
    12:00 +38°C° 0 mm 7 mps 741 mmHg 14%
    13:00 +39°C° 0 mm 7 mps 741 mmHg 13%
    14:00 +40°C° 0 mm 6 mps 741 mmHg 12%
    15:00 +40°C° 0 mm 6 mps 741 mmHg 12%
    16:00 +41°C° 0 mm 6 mps 741 mmHg 11%
    17:00 +40°C° 0 mm 6 mps 741 mmHg 12%
    18:00 +39°C° 0 mm 6 mps 740 mmHg 13%
    19:00 +38°C° 0 mm 6 mps 740 mmHg 14%
    20:00 +36°C° 0 mm 6 mps 741 mmHg 16%
    21:00 +34°C° 0 mm 7 mps 741 mmHg 17%
    22:00 +33°C° 0 mm 8 mps 741 mmHg 19%
    23:00 +32°C° 0 mm 8 mps 741 mmHg 21%

    Tomorrow, 27 May, Sunday

    Time Temperature Precipitation Wind Pressure Humidity
    00:00 +30°C° 0 mm 7 mps 741 mmHg 22%
    01:00 +29°C° 0 mm 7 mps 741 mmHg 24%
    02:00 +29°C° 0 mm 7 mps 741 mmHg 26%
    03:00 +28°C° 0 mm 6 mps 741 mmHg 27%
    04:00 +28°C° 0 mm 6 mps 741 mmHg 28%
    05:00 +28°C° 0 mm 6 mps 741 mmHg 29%
    06:00 +28°C° 0 mm 5 mps 742 mmHg 29%
    07:00 +28°C° 0 mm 5 mps 742 mmHg 29%
    08:00 +30°C° 0 mm 5 mps 742 mmHg 25%
    09:00 +34°C° 0 mm 5 mps 742 mmHg 21%
    10:00 +36°C° 0 mm 5 mps 742 mmHg 16%
    11:00 +37°C° 0 mm 5 mps 742 mmHg 14%
    12:00 +40°C° 0 mm 5 mps 742 mmHg 12%
    13:00 +41°C° 0 mm 5 mps 741 mmHg 10%
    14:00 +41°C° 0 mm 5 mps 741 mmHg 10%
    15:00 +42°C° 0 mm 5 mps 740 mmHg 10%
    16:00 +42°C° 0 mm 5 mps 740 mmHg 9%
    17:00 +42°C° 0 mm 5 mps 740 mmHg 10%
    18:00 +41°C° 0 mm 6 mps 740 mmHg 11%
    19:00 +40°C° 0 mm 6 mps 739 mmHg 12%
    20:00 +39°C° 0 mm 7 mps 740 mmHg 14%
    21:00 +37°C° 0 mm 8 mps 740 mmHg 16%
    22:00 +35°C° 0 mm 9 mps 740 mmHg 17%
    23:00 +34°C° 0 mm 9 mps 740 mmHg 19%

    Day after tomorrow, 28 May, Monday

    Time Temperature Precipitation Wind Pressure Humidity
    00:00 +34°C° 0 mm 8 mps 740 mmHg 20%
    01:00 +33°C° 0 mm 8 mps 740 mmHg 21%
    02:00 +33°C° 0 mm 8 mps 739 mmHg 21%
    03:00 +32°C° 0 mm 8 mps 739 mmHg 20%
    04:00 +32°C° 0 mm 8 mps 739 mmHg 19%
    05:00 +32°C° 0 mm 8 mps 739 mmHg 19%
    06:00 +33°C° 0 mm 8 mps 739 mmHg 18%
    07:00 +33°C° 0 mm 8 mps 739 mmHg 17%
    08:00 +35°C° 0 mm 8 mps 739 mmHg 15%
    09:00 +38°C° 0 mm 9 mps 739 mmHg 13%
    10:00 +40°C° 0 mm 9 mps 740 mmHg 11%
    11:00 +42°C° 0 mm 9 mps 739 mmHg 11%
    12:00 +44°C° 0 mm 9 mps 739 mmHg 10%
    13:00 +47°C° 0 mm 9 mps 738 mmHg 9%
    14:00 +46°C° 0 mm 8 mps 738 mmHg 9%
    15:00 +46°C° 0 mm 7 mps 737 mmHg 9%
    16:00 +46°C° 0 mm 6 mps 737 mmHg 9%
    17:00 +45°C° 0.1 mm 6 mps 737 mmHg 11%
    18:00 +43°C° 0.1 mm 5 mps 736 mmHg 12%
    19:00 +42°C° 0.1 mm 5 mps 736 mmHg 13%
    20:00 +41°C° 0.1 mm 6 mps 737 mmHg 14%
    21:00 +40°C° 0.1 mm 8 mps 737 mmHg 14%
    22:00 +39°C° 0.1 mm 9 mps 737 mmHg 15%
    23:00 +39°C° 0 mm 9 mps 737 mmHg 15%

    29 May, Tuesday

    Time Temperature Precipitation Wind Pressure Humidity
    00:00 +39°C° 0 mm 8 mps 737 mmHg 15%
    01:00 +39°C° 0 mm 8 mps 736 mmHg 16%
    02:00 +38°C° 0 mm 8 mps 736 mmHg 15%
    03:00 +37°C° 0 mm 8 mps 736 mmHg 15%
    04:00 +37°C° 0 mm 8 mps 736 mmHg 15%
    05:00 +37°C° 0 mm 8 mps 736 mmHg 15%
    06:00 +37°C° 0 mm 8 mps 736 mmHg 15%
    07:00 +37°C° 0 mm 8 mps 736 mmHg 15%
    08:00 +39°C° 0 mm 8 mps 736 mmHg 14%
    09:00 +41°C° 0 mm 8 mps 737 mmHg 12%
    10:00 +44°C° 0 mm 8 mps 737 mmHg 10%
    11:00 +44°C° 0 mm 8 mps 737 mmHg 9%
    12:00 +45°C° 0 mm 7 mps 736 mmHg 8%
    13:00 +46°C° 0 mm 6 mps 736 mmHg 6%
    14:00 +46°C° 0 mm 7 mps 736 mmHg 6%
    15:00 +46°C° 0 mm 7 mps 735 mmHg 7%
    16:00 +48°C° 0 mm 8 mps 735 mmHg 7%
    17:00 +45°C° 0 mm 7 mps 735 mmHg 8%
    18:00 +44°C° 0 mm 6 mps 735 mmHg 9%
    19:00 +42°C° 0 mm 4 mps 735 mmHg 10%
    20:00 +41°C° 0 mm 5 mps 736 mmHg 13%
    21:00 +39°C° 0 mm 5 mps 736 mmHg 15%
    22:00 +37°C° 0 mm 5 mps 736 mmHg 18%
    23:00 +36°C° 0 mm 5 mps 736 mmHg 19%

    30 May, Wednesday

    Time Temperature Precipitation Wind Pressure Humidity
    00:00 +35°C° 0 mm 4 mps 736 mmHg 21%
    01:00 +34°C° 0 mm 4 mps 736 mmHg 22%
    02:00 +33°C° 0 mm 4 mps 736 mmHg 24%
    03:00 +33°C° 0 mm 3 mps 736 mmHg 26%
    04:00 +31°C° 0 mm 3 mps 736 mmHg 28%
    05:00 +32°C° 0 mm 4 mps 736 mmHg 30%
    06:00 +32°C° 0 mm 5 mps 737 mmHg 32%
    07:00 +32°C° 0 mm 6 mps 737 mmHg 33%
    08:00 +33°C° 0 mm 6 mps 737 mmHg 31%
    09:00 +35°C° 0 mm 6 mps 737 mmHg 28%
    10:00 +36°C° 0 mm 7 mps 737 mmHg 26%
    11:00 +39°C° 0 mm 6 mps 737 mmHg 23%
    12:00 +40°C° 0 mm 6 mps 737 mmHg 20%
    13:00 +42°C° 0 mm 5 mps 737 mmHg 16%
    14:00 +42°C° 0 mm 5 mps 736 mmHg 16%
    15:00 +43°C° 0 mm 5 mps 736 mmHg 15%
    16:00 +43°C° 0 mm 4 mps 736 mmHg 14%
    17:00 +42°C° 0 mm 5 mps 736 mmHg 17%
    18:00 +40°C° 0 mm 6 mps 736 mmHg 20%
    19:00 +39°C° 0 mm 8 mps 736 mmHg 23%
    20:00 +37°C° 0 mm 8 mps 736 mmHg 28%
    21:00 +34°C° 0 mm 8 mps 737 mmHg 32%
    22:00 +32°C° 0 mm 8 mps 737 mmHg 36%
    23:00 +32°C° 0 mm 8 mps 737 mmHg 38%

    31 May, Thursday

    Time Temperature Precipitation Wind Pressure Humidity
    00:00 +31°C° 0 mm 8 mps 736 mmHg 40%
    01:00 +29°C° 0 mm 7 mps 736 mmHg 41%
    02:00 +29°C° 0 mm 7 mps 736 mmHg 43%
    03:00 +28°C° 0 mm 6 mps 736 mmHg 44%
    04:00 +28°C° 0 mm 5 mps 736 mmHg 46%
    05:00 +28°C° 0 mm 6 mps 736 mmHg 48%
    06:00 +28°C° 0 mm 6 mps 736 mmHg 50%
    07:00 +27°C° 0 mm 6 mps 737 mmHg 53%
    08:00 +29°C° 0 mm 6 mps 737 mmHg 48%
    09:00 +32°C° 0 mm 6 mps 737 mmHg 43%
    10:00 +33°C° 0 mm 5 mps 737 mmHg 38%
    11:00 +35°C° 0 mm 4 mps 737 mmHg 32%
    12:00 +37°C° 0 mm 3 mps 737 mmHg 26%
    13:00 +39°C° 0 mm 2 mps 737 mmHg 20%
    14:00 +40°C° 0 mm 2 mps 737 mmHg 17%
    15:00 +42°C° 0 mm 3 mps 737 mmHg 14%
    16:00 +43°C° 0 mm 3 mps 737 mmHg 11%
    17:00 +42°C° 0 mm 4 mps 737 mmHg 13%
    18:00 +41°C° 0 mm 4 mps 737 mmHg 14%
    19:00 +40°C° 0 mm 4 mps 737 mmHg 16%
    20:00 +37°C° 0 mm 5 mps 737 mmHg 25%
    21:00 +35°C° 0 mm 6 mps 738 mmHg 33%
    22:00 +33°C° 0 mm 7 mps 738 mmHg 42%
    23:00 +32°C° 0 mm 7 mps 738 mmHg 45%
    Show more